Defiance, OH

4:59 PM EDT on September 22, 2017 (GMT -0400)
Defiance Memorial

Weather History for KDFI - March, 2012

Change the Weather History Date:

Friday, March 9, 2012

  Actual Average Record
Temperature  
Mean Temperature 32 °F -  
Max Temperature 37 °F 42 °F 71 °F (1987)
Min Temperature 25 °F 22 °F -3 °F (1978)
Degree Days  
Heating Degree Days 33    
Moisture  
Dew Point 20 °F    
Average Humidity 57    
Maximum Humidity 79    
Minimum Humidity 39    
Precipitation  
Precipitation 0.00 in - - ()
Sea Level Pressure  
Sea Level Pressure 30.39 in    
Wind  
Wind Speed 11 mph (WNW)    
Max Wind Speed 24 mph    
Max Gust Speed 34 mph    
Visibility 10 miles    
Events Snow    
Averages and records for this station are not official NWS values.
T = Trace of Precipitation, MM = Missing Value Source: NWS Daily Summary

Daily Weather History Graph

Daily Weather History Graph

Search for Another Location

Airport or City:

Trip Planner

Search our weather history database for the weather conditions in past years. The results will help you decide how hot, cold, wet, or windy it might be!

Date:

Astronomy

Mar. 09, 2012 Rise Set
Actual Time 6:58 AM EST 6:38 PM EST
Civil Twilight 6:31 AM EST 7:05 PM EST
Nautical Twilight 5:59 AM EST 7:37 PM EST
Astronomical Twilight 5:26 AM EST 8:10 PM EST
Moon 8:39 PM EST (3/9) 7:15 AM EST (3/9)
Length of Visible Light 12h 34m
Length of Day
11h 39m
Full, 98% of the Moon is Illuminated
Mar 9
Full
Mar 14
Last Quarter
Mar 22
New
Mar 30
First Quarter
Apr 6
Full

Hourly Weather History & Observations

Time (EST) Temp. Windchill Dew Point Humidity Pressure Visibility Wind Dir Wind Speed Gust Speed Precip Events Conditions
12:53 AM 33.1 °F 27.7 °F 25.0 °F 72% 30.21 in 10.0 mi SW 5.8 mph - N/A   Clear
1:53 AM 33.1 °F 26.1 °F 25.0 °F 72% 30.21 in 10.0 mi WSW 8.1 mph - N/A   Clear
2:53 AM 34.0 °F 28.0 °F 24.1 °F 67% 30.20 in 10.0 mi WSW 6.9 mph - N/A   Partly Cloudy
3:53 AM 34.0 °F 28.0 °F 25.0 °F 70% 30.19 in 10.0 mi WSW 6.9 mph - N/A   Overcast
4:53 AM 34.0 °F 28.8 °F 25.0 °F 70% 30.20 in 10.0 mi WSW 5.8 mph - N/A   Mostly Cloudy
5:53 AM 36.0 °F 28.0 °F 24.1 °F 62% 30.21 in 10.0 mi WSW 11.5 mph 17.3 mph N/A   Clear
6:53 AM 34.0 °F 23.4 °F 28.0 °F 79% 30.25 in 5.0 mi NW 17.3 mph 24.2 mph 0.00 in Snow Light Snow
7:53 AM 34.0 °F 24.6 °F 19.9 °F 56% 30.30 in 10.0 mi WNW 13.8 mph 21.9 mph 0.00 in   Clear
8:53 AM 35.1 °F 25.2 °F 19.9 °F 54% 30.34 in 10.0 mi WNW 16.1 mph 25.3 mph N/A   Clear
9:53 AM 36.0 °F 24.2 °F 19.9 °F 52% 30.37 in 10.0 mi NW 24.2 mph 34.5 mph N/A   Clear
10:53 AM 37.9 °F 27.3 °F 19.9 °F 48% 30.39 in 10.0 mi NNW 21.9 mph 28.8 mph N/A   Partly Cloudy
11:53 AM 37.9 °F 28.9 °F 21.9 °F 53% 30.43 in 10.0 mi WNW 16.1 mph 28.8 mph N/A   Partly Cloudy
12:53 PM 36.0 °F 25.0 °F 21.0 °F 55% 30.44 in 10.0 mi NW 20.7 mph 25.3 mph N/A   Mostly Cloudy
1:53 PM 37.9 °F 28.9 °F 17.1 °F 43% 30.45 in 10.0 mi WNW 16.1 mph 23.0 mph N/A   Mostly Cloudy
2:53 PM 37.9 °F 32.1 °F 18.0 °F 45% 30.46 in 10.0 mi WNW 8.1 mph 26.5 mph N/A   Partly Cloudy
3:53 PM 37.9 °F 29.2 °F 15.1 °F 39% 30.47 in 10.0 mi WNW 15.0 mph 26.5 mph N/A   Clear
4:53 PM 37.0 °F 28.5 °F 14.0 °F 39% 30.48 in 10.0 mi NW 13.8 mph 25.3 mph N/A   Clear
5:53 PM 35.1 °F 25.9 °F 14.0 °F 42% 30.49 in 10.0 mi NW 13.8 mph 21.9 mph N/A   Clear
6:53 PM 32.0 °F 23.0 °F 12.9 °F 45% 30.51 in 10.0 mi NW 11.5 mph 18.4 mph N/A   Clear
7:53 PM 30.9 °F 22.8 °F 15.1 °F 52% 30.53 in 10.0 mi NNW 9.2 mph - N/A   Clear
8:53 PM 30.0 °F 21.7 °F 16.0 °F 56% 30.55 in 10.0 mi NW 9.2 mph - N/A   Clear
9:53 PM 28.0 °F 20.0 °F 16.0 °F 61% 30.56 in 10.0 mi NNW 8.1 mph - N/A   Clear
10:53 PM 27.0 °F 18.0 °F 16.0 °F 63% 30.55 in 10.0 mi North 9.2 mph - N/A   Clear
11:53 PM 25.0 °F 19.3 °F 16.0 °F 69% 30.55 in 10.0 mi NNW 4.6 mph - N/A   Clear